This is the latest recevied weather packets stored in our database for station/object K7LER. If no packets are shown the sender has not sent any weather packets the latest 10 day(s).
| Time | Temp. | Humidity | Pressure | Rain* | Wind** | Luminosity | Snow |
|---|---|---|---|---|---|---|---|
| 1777603540 | - | - | 1015.3 hPa | 0 mm | - | - | - |
| 1777603233 | 18.89° C | 59% | 1015.3 hPa | 0 mm | - | 18 W/m² | - |
| 1777602933 | 18.89° C | 59% | 1015.4 hPa | 0 mm | - | 18 W/m² | - |
| 1777602653 | 18.89° C | 58% | 1015.3 hPa | 0 mm | - | 21 W/m² | - |
| 1777602334 | 18.89° C | 57% | 1015.4 hPa | 0 mm | - | 25 W/m² | - |
| 1777602036 | 19.44° C | 56% | 1015.4 hPa | 0 mm | - | 32 W/m² | - |
| 1777601760 | 19.44° C | 56% | 1015.4 hPa | 0 mm | - | 51 W/m² | - |
| 1777601434 | 20° C | 55% | 1015.5 hPa | 0 mm | - | 72 W/m² | - |
| 1777601134 | 20° C | 54% | 1015.5 hPa | 0 mm | - | 81 W/m² | - |
| 1777600844 | 20.56° C | 53% | 1015.5 hPa | 0 mm | - | 105 W/m² | - |
| 1777600534 | 21.11° C | 52% | 1015.6 hPa | 0 mm | - | 132 W/m² | - |
| 1777600234 | 21.67° C | 51% | 1015.5 hPa | 0 mm | - | 146 W/m² | - |
| 1777599941 | 21.67° C | 49% | 1015.5 hPa | 0 mm | - | 158 W/m² | - |
| 1777599635 | 22.22° C | 48% | 1015.5 hPa | 0 mm | - | 174 W/m² | - |
| 1777599334 | 22.22° C | 48% | 1015.5 hPa | 0 mm | - | 190 W/m² | - |
| 1777599042 | 22.22° C | 48% | 1015.6 hPa | 0 mm | - | 206 W/m² | - |
| 1777598735 | 21.67° C | 47% | 1015.6 hPa | 0 mm | - | 197 W/m² | - |
| 1777598434 | 22.22° C | 47% | 1015.7 hPa | 0 mm | - | 200 W/m² | - |
| 1777598139 | 22.22° C | 46% | 1015.8 hPa | 0 mm | - | 221 W/m² | - |
| 1777597833 | 22.22° C | 45% | 1015.8 hPa | 0 mm | - | 225 W/m² | - |
| 1777597534 | 22.22° C | 44% | 1015.8 hPa | 0 mm | - | 251 W/m² | - |
| 1777597244 | 22.22° C | 43% | 1015.7 hPa | 0 mm | - | 290 W/m² | - |
| 1777596934 | 22.22° C | 43% | 1015.8 hPa | 0 mm | - | 341 W/m² | - |
| 1777596634 | 22.22° C | 43% | 1015.8 hPa | 0 mm | - | 360 W/m² | - |
| 1777596343 | 22.22° C | 45% | 1015.9 hPa | 0 mm | - | 378 W/m² | - |
* Rain latest hour (hover to see other rain measurements)
** Current wind speed in m/s (hover to see current wind gust speed)